GW3294 Weather Reports


Display with metric or nautical units.
time (UTC)temp
F
wind
direction
speed
MPH
gust
MPH
rain 1hr
in
rain 24hr
in
rain mn
in
humidity
%
barometer
mb
20260505031636 72 236 0.0 3.0 0.00 0.15 0.15 58 1006.7
20260505031132 72 176 0.0 2.0 0.00 0.15 0.15 58 1007.0
20260505030629 73 133 0.0 4.0 0.00 0.15 0.15 57 1006.7
20260505030125 73 253 0.0 3.0 0.00 0.15 0.15 57 1006.7
20260505025621 73 171 0.0 4.0 0.00 0.15 0.15 56 1006.5
20260505025120 73 10 1.0 2.0 0.00 0.15 0.15 56 1006.6
20260505024617 73 142 0.0 2.0 0.00 0.15 0.15 58 1006.6
20260505024114 73 186 0.0 3.0 0.00 0.15 0.15 60 1006.3
20260505023611 73 251 1.0 3.0 0.00 0.15 0.15 57 1006.2
20260505023109 73 226 1.0 3.0 0.00 0.15 0.15 57 1006.3
20260505022606 72 157 1.0 2.0 0.00 0.15 0.15 58 1006.1
20260505022103 71 253 2.0 3.0 0.00 0.15 0.15 62 1005.9
20260505021600 71 117 2.0 3.0 0.00 0.15 0.15 67 1006.1
20260505021056 71 82 0.0 1.0 0.00 0.15 0.15 69 1006.0
20260505020556 72 155 1.0 1.0 0.00 0.15 0.15 66 1005.8
20260505020053 73 89 0.0 1.0 0.00 0.15 0.15 62 1005.6
20260505015550 73 191 1.0 2.0 0.00 0.15 0.15 58 1005.5
20260505015047 73 152 2.0 3.0 0.00 0.15 0.15 65 1005.6
20260505014544 74 157 1.0 3.0 0.00 0.15 0.15 63 1005.4
20260505014041 73 247 1.0 6.0 0.00 0.15 0.15 56 1005.5
20260505013538 73 194 0.0 4.0 0.00 0.15 0.15 55 1005.3
20260505013036 74 293 1.0 3.0 0.00 0.15 0.15 63 1005.4
20260505012534 73 143 2.0 4.0 0.00 0.15 0.15 57 1005.2
20260505012030 74 147 0.0 3.0 0.00 0.15 0.15 55 1005.4
20260505011526 75 52 0.0 3.0 0.00 0.15 0.15 54 1005.2
20260505011023 75 171 3.0 4.0 0.00 0.15 0.15 54 1005.3
20260505010518 75 148 0.0 6.0 0.00 0.15 0.15 54 1005.2
20260505010015 75 156 0.0 6.0 0.00 0.15 0.15 54 1005.1
20260505005512 75 155 0.0 4.0 0.00 0.15 0.15 54 1004.9
20260505005009 75 230 0.0 4.0 0.00 0.15 0.15 53 1005.0
20260505004506 75 238 0.0 5.0 0.00 0.15 0.15 54 1005.0
20260505004003 76 225 1.0 2.0 0.00 0.15 0.15 54 1004.7
20260505003500 76 178 2.0 3.0 0.00 0.15 0.15 55 1004.6
20260505002956 76 191 1.0 3.0 0.00 0.15 0.15 52 1004.6
20260505002452 77 199 1.0 3.0 0.00 0.15 0.15 52 1004.8
20260505001951 77 81 0.0 4.0 0.00 0.15 0.15 51 1004.6
20260505001448 77 244 2.0 3.0 0.00 0.15 0.15 50 1004.8
20260505000945 78 242 0.0 3.0 0.00 0.15 0.15 50 1004.6
20260505000443 78 144 2.0 5.0 0.00 0.15 0.15 49 1004.7
20260504235940 78 196 0.0 3.0 0.00 0.15 0.15 50 1004.5
20260504235437 79 274 2.0 10.0 0.00 0.15 0.15 48 1004.5
20260504234933 79 267 3.0 9.0 0.00 0.15 0.15 49 1004.4
20260504234431 79 207 1.0 5.0 0.00 0.15 0.15 50 1004.5
20260504233927 79 156 2.0 4.0 0.00 0.15 0.15 50 1004.6
20260504233423 79 284 2.0 11.0 0.00 0.15 0.15 49 1004.8
20260504232919 79 163 2.0 7.0 0.00 0.15 0.15 49 1004.5
20260504232417 80 288 0.0 8.0 0.00 0.15 0.15 48 1004.8
20260504231913 79 131 2.0 9.0 0.00 0.15 0.15 49 1004.9
20260504231404 80 216 1.0 7.0 0.00 0.15 0.15 48 1004.9
20260504230901 80 156 3.0 6.0 0.00 0.15 0.15 47 1005.1
20260504230358 80 149 3.0 7.0 0.00 0.15 0.15 49 1005.2
20260504225857 79 195 0.0 3.0 0.00 0.15 0.15 55 1005.3
20260504225353 78 130 2.0 4.0 0.00 0.15 0.15 56 1005.2
20260504224851 77 223 2.0 6.0 0.00 0.15 0.15 62 1005.2
20260504224347 77 186 0.0 1.0 0.00 0.15 0.15 65 1005.3
20260504223844 77 51 0.0 1.0 0.00 0.15 0.15 67 1005.2
20260504223339 77 96 0.0 2.0 0.00 0.15 0.15 63 1005.4
20260504222836 77 322 0.0 1.0 0.00 0.15 0.15 60 1005.4
20260504222333 77 315 0.0 2.0 0.00 0.15 0.15 58 1005.5
20260504221832 77 104 0.0 3.0 0.00 0.15 0.15 57 1005.3
20260504221327 78 142 0.0 2.0 0.00 0.15 0.15 58 1005.4
20260504220825 78 185 0.0 3.0 0.00 0.15 0.15 57 1005.5
20260504220321 78 68 1.0 3.0 0.00 0.15 0.15 58 1005.2
20260504215819 78 134 2.0 7.0 0.00 0.15 0.15 58 1005.4
20260504215315 79 125 2.0 4.0 0.00 0.15 0.15 55 1005.3
20260504214811 79 222 0.0 4.0 0.00 0.15 0.15 54 1005.3
20260504214308 80 142 3.0 9.0 0.00 0.15 0.15 55 1005.4
20260504213805 81 331 1.0 3.0 0.00 0.15 0.15 56 1005.6
20260504213301 79 255 2.0 3.0 0.00 0.15 0.15 60 1005.5
20260504212759 79 78 2.0 5.0 0.00 0.15 0.15 58 1005.6
20260504212255 79 253 0.0 5.0 0.00 0.15 0.15 60 1005.6
20260504211752 78 166 2.0 5.0 0.00 0.15 0.15 61 1005.7
20260504211248 77 198 0.0 7.0 0.00 0.15 0.15 63 1005.7
20260504210746 77 123 0.0 5.0 0.00 0.15 0.15 65 1005.7
20260504210243 77 154 2.0 5.0 0.00 0.15 0.15 65 1005.7
20260504205740 77 22 0.0 2.0 0.00 0.15 0.15 67 1005.7
20260504205238 76 101 0.0 9.0 0.00 0.15 0.15 66 1005.9
20260504204736 76 166 3.0 6.0 0.00 0.15 0.15 65 1005.9
20260504204234 75 95 0.0 4.0 0.00 0.15 0.15 71 1006.1
20260504203733 76 132 2.0 2.0 0.00 0.15 0.15 70 1006.1
20260504203230 76 157 3.0 8.0 0.00 0.15 0.15 65 1006.3
20260504202729 75 143 1.0 5.0 0.00 0.15 0.15 71 1006.3
20260504202227 74 194 1.0 5.0 0.00 0.15 0.15 70 1006.2
20260504201724 73 154 0.0 2.0 0.00 0.15 0.15 78 1006.3
20260504201221 72 89 1.0 2.0 0.00 0.15 0.15 80 1006.1
20260504200719 70 137 0.0 3.0 0.00 0.15 0.15 85 1006.5
20260504200214 68 255 0.0 2.0 0.00 0.15 0.15 89 1006.5
20260504195711 68 109 3.0 4.0 0.00 0.15 0.15 90 1006.2
20260504195207 66 77 0.0 2.0 0.00 0.15 0.15 92 1006.1
20260504194704 66 161 0.0 3.0 0.00 0.15 0.15 96 1006.3
20260504194200 66 157 2.0 3.0 0.00 0.15 0.15 96 1006.8
20260504193657 67 173 0.0 2.0 0.00 0.15 0.15 96 1006.9
20260504193155 66 163 1.0 2.0 0.00 0.15 0.15 96 1007.0
20260504192652 63 276 2.0 2.0 0.00 0.15 0.15 97 1006.9
20260504192150 62 31 1.0 2.0 0.00 0.15 0.15 97 1006.6
20260504191649 61 0 2.0 3.0 0.00 0.15 0.15 98 1006.8
20260504191144 61 236 1.0 2.0 0.00 0.15 0.15 98 1006.9
20260504190641 61 87 1.0 3.0 0.02 0.15 0.15 98 1007.3
20260504190137 60 63 1.0 2.0 0.05 0.15 0.15 98 1007.7
20260504185634 60 98 1.0 3.0 0.07 0.15 0.15 98 1007.8
20260504185130 60 97 2.0 3.0 0.05 0.14 0.14 97 1008.2
20260504184626 60 350 0.0 3.0 0.05 0.13 0.13 97 1008.1
20260504184121 60 43 1.0 2.0 0.07 0.13 0.13 96 1008.0
20260504183619 60 344 2.0 3.0 0.05 0.13 0.13 95 1007.5
20260504183116 60 19 2.0 3.0 0.09 0.12 0.12 95 1007.3
20260504182614 60 19 2.0 4.0 0.42 0.11 0.11 95 1007.3
20260504182111 60 118 0.0 3.0 0.45 0.10 0.10 95 1007.8
20260504181609 61 148 3.0 4.0 0.05 0.03 0.03 94 1008.6
20260504181106 61 96 1.0 3.0 0.00 0.02 0.02 92 1008.6
20260504180605 61 47 1.0 2.0 0.00 0.02 0.02 91 1008.4
20260504180104 61 31 0.0 2.0 0.00 0.02 0.02 91 1008.3
20260504175600 61 18 1.0 2.0 0.00 0.02 0.02 90 1008.0
20260504175057 61 1 1.0 2.0 0.00 0.02 0.02 91 1007.9
20260504174555 62 85 2.0 3.0 0.00 0.02 0.02 91 1008.0
20260504174051 62 89 0.0 2.0 0.00 0.02 0.02 89 1008.1
20260504173548 62 114 0.0 1.0 0.00 0.02 0.02 88 1008.1
20260504173046 62 132 1.0 2.0 0.00 0.02 0.02 85 1008.3
20260504172542 62 109 0.0 3.0 0.00 0.02 0.02 85 1008.2
20260504172038 62 89 0.0 2.0 0.00 0.02 0.02 82 1008.6
20260504171535 62 57 0.0 2.0 0.00 0.02 0.02 81 1008.3
20260504171032 63 45 0.0 3.0 0.07 0.02 0.02 77 1008.2
20260504170528 64 89 0.0 3.0 0.05 0.02 0.02 78 1008.1
20260504150912 68 230 0.0 2.0 0.00 0.00 0.00 60 1010.5
20260504150409 68 214 0.0 3.0 0.00 0.00 0.00 63 1010.3
20260504140835 68 213 0.0 3.0 0.00 0.00 0.00 62 1010.0
20260504140331 68 150 2.0 3.0 0.00 0.00 0.00 63 1010.1
20260504130800 64 88 2.0 5.0 0.00 0.00 0.00 70 1010.6
20260504130256 63 137 0.0 8.0 0.00 0.00 0.00 71 1010.6
20260504120220 55 157 1.0 3.0 0.00 0.00 0.00 89 1011.1
20260504110647 53 124 1.0 2.0 0.00 0.00 0.00 90 1011.1
20260504110143 53 135 2.0 3.0 0.00 0.00 0.00 90 1011.3
20260504100609 55 111 1.0 2.0 0.00 0.00 0.00 88 1010.8
20260504100107 55 114 0.0 2.0 0.00 0.00 0.00 88 1010.7
20260504082003 57 69 1.0 3.0 0.00 0.00 0.00 83 1010.7
20260504081500 57 144 0.0 3.0 0.00 0.00 0.00 82 1010.9
20260504080949 57 138 3.0 3.0 0.00 0.00 0.00 82 1010.7
20260504080447 57 65 0.0 2.0 0.00 0.00 0.00 81 1011.0
20260504050253 66 133 0.0 4.0 0.00 0.00 0.00 56 1010.7
20260504045750 66 295 3.0 7.0 0.00 0.00 0.00 56 1010.6
20260504045245 66 269 0.0 7.0 0.00 0.00 0.00 55 1010.8
20260504044743 67 187 2.0 8.0 0.00 0.00 0.00 55 1010.8
20260504044240 67 274 1.0 4.0 0.00 0.00 0.00 55 1010.9
20260504043737 67 112 3.0 6.0 0.00 0.00 0.00 55 1010.9
20260504043234 67 257 0.0 3.0 0.00 0.00 0.00 54 1011.0
20260504042732 67 196 0.0 6.0 0.00 0.00 0.00 54 1011.2
20260504042228 67 187 3.0 6.0 0.00 0.00 0.00 54 1011.5
20260504041724 68 197 0.0 5.0 0.00 0.00 0.00 53 1011.5
20260504041220 68 188 1.0 5.0 0.00 0.00 0.00 53 1011.5
20260504040717 68 134 2.0 4.0 0.00 0.00 0.00 53 1011.5
20260504040214 68 134 3.0 10.0 0.00 0.00 0.00 52 1011.5
20260504035710 68 243 2.0 4.0 0.00 0.00 0.00 52 1011.2
20260504035208 68 340 2.0 7.0 0.00 0.00 0.00 52 1011.8
20260504034705 68 239 2.0 7.0 0.00 0.00 0.00 52 1012.2
20260504034202 68 210 1.0 4.0 0.00 0.00 0.00 52 1011.9
20260504033700 68 230 2.0 3.0 0.00 0.00 0.00 53 1012.0
20260504033156 68 226 1.0 4.0 0.00 0.00 0.00 52 1011.9
20260504032653 68 245 2.0 7.0 0.00 0.00 0.00 52 1012.1
20260504032151 68 59 1.0 3.0 0.00 0.00 0.00 53 1012.1
20260504031647 68 296 2.0 5.0 0.00 0.00 0.00 52 1012.1